Wetterdaten: Montag, 26.10.2015
Datum Zeit Temp. A. Feuchte A. Luftdruck Regen Wind Richtung Richtung Sonnenschein ET UV Solar Taupunkt Windchill Windben Empfang
26.10.2015 00:00 9,9 C 96 % 1025,3 hPa 0,0 l/m 0,1 km/h (0 Bft) O 92 0 min 0,000 mm 0,0 UV-I 0 W/m 9,3 C 9,9 C 1,6 km/h (1 Bft) 98,21 %
26.10.2015 00:05 10,0 C 95 % 1025,3 hPa 0,0 l/m 0,1 km/h (0 Bft) O 92 0 min 0,000 mm 0,0 UV-I 0 W/m 9,2 C 10,0 C 1,6 km/h (1 Bft) 95,69 %
26.10.2015 00:10 10,1 C 95 % 1025,2 hPa 0,0 l/m 0,1 km/h (0 Bft) O 92 0 min 0,000 mm 0,0 UV-I 0 W/m 9,3 C 10,1 C 1,6 km/h (1 Bft) 100,00 %
26.10.2015 00:15 10,1 C 95 % 1025,2 hPa 0,0 l/m 2,1 km/h (1 Bft) O-NO 73 0 min 0,000 mm 0,0 UV-I 0 W/m 9,3 C 10,1 C 4,8 km/h (1 Bft) 99,21 %
26.10.2015 00:20 10,0 C 95 % 1025,1 hPa 0,0 l/m 2,2 km/h (1 Bft) O 99 0 min 0,000 mm 0,0 UV-I 0 W/m 9,2 C 10,0 C 4,8 km/h (1 Bft) 100,00 %
26.10.2015 00:25 9,9 C 95 % 1025,1 hPa 0,0 l/m 2,5 km/h (1 Bft) O-NO 77 0 min 0,000 mm 0,0 UV-I 0 W/m 9,1 C 9,9 C 6,4 km/h (2 Bft) 97,46 %
26.10.2015 00:30 9,9 C 95 % 1025,1 hPa 0,0 l/m 2,0 km/h (1 Bft) O 93 0 min 0,000 mm 0,0 UV-I 0 W/m 9,1 C 9,9 C 4,8 km/h (1 Bft) 97,46 %
26.10.2015 00:35 9,8 C 96 % 1025,1 hPa 0,0 l/m 3,3 km/h (1 Bft) O 81 0 min 0,000 mm 0,0 UV-I 0 W/m 9,2 C 9,8 C 6,4 km/h (2 Bft) 98,35 %
26.10.2015 00:40 9,8 C 96 % 1025,0 hPa 0,0 l/m 2,5 km/h (1 Bft) O 85 0 min 0,000 mm 0,0 UV-I 0 W/m 9,2 C 9,8 C 4,8 km/h (1 Bft) 98,33 %
26.10.2015 00:45 9,7 C 96 % 1025,0 hPa 0,0 l/m 0,5 km/h (0 Bft) O-NO 67 0 min 0,000 mm 0,0 UV-I 0 W/m 9,1 C 9,7 C 3,2 km/h (1 Bft) 100,00 %
26.10.2015 00:50 9,7 C 96 % 1025,0 hPa 0,0 l/m 0,2 km/h (0 Bft) O-NO 67 0 min 0,000 mm 0,0 UV-I 0 W/m 9,1 C 9,7 C 1,6 km/h (1 Bft) 99,15 %
26.10.2015 00:55 9,7 C 96 % 1025,1 hPa 0,0 l/m 1,9 km/h (1 Bft) O 82 0 min 0,000 mm 0,0 UV-I 0 W/m 9,1 C 9,7 C 3,2 km/h (1 Bft) 98,29 %
26.10.2015 01:00 9,7 C 96 % 1025,0 hPa 0,0 l/m 1,3 km/h (1 Bft) O-NO 78 0 min 0,000 mm 0,0 UV-I 0 W/m 9,1 C 9,7 C 3,2 km/h (1 Bft) 99,15 %
26.10.2015 01:05 9,7 C 96 % 1024,9 hPa 0,0 l/m 2,1 km/h (1 Bft) O 91 0 min 0,000 mm 0,0 UV-I 0 W/m 9,1 C 9,7 C 4,8 km/h (1 Bft) 99,15 %
26.10.2015 01:10 9,8 C 96 % 1024,9 hPa 0,0 l/m 3,3 km/h (1 Bft) O-NO 76 0 min 0,000 mm 0,0 UV-I 0 W/m 9,2 C 9,8 C 6,4 km/h (2 Bft) 97,46 %
26.10.2015 01:15 9,7 C 96 % 1024,8 hPa 0,0 l/m 3,2 km/h (1 Bft) O-NO 72 0 min 0,000 mm 0,0 UV-I 0 W/m 9,1 C 9,7 C 4,8 km/h (1 Bft) 99,15 %
26.10.2015 01:20 9,7 C 96 % 1024,8 hPa 0,0 l/m 1,6 km/h (1 Bft) O 82 0 min 0,000 mm 0,0 UV-I 0 W/m 9,1 C 9,7 C 4,8 km/h (1 Bft) 97,44 %
26.10.2015 01:25 9,7 C 96 % 1024,7 hPa 0,0 l/m 1,6 km/h (1 Bft) O-NO 76 0 min 0,000 mm 0,0 UV-I 0 W/m 9,1 C 9,7 C 4,8 km/h (1 Bft) 99,15 %
26.10.2015 01:30 9,6 C 96 % 1024,6 hPa 0,0 l/m 0,5 km/h (0 Bft) O-NO 76 0 min 0,000 mm 0,0 UV-I 0 W/m 9,0 C 9,6 C 1,6 km/h (1 Bft) 99,15 %
26.10.2015 01:35 9,6 C 96 % 1024,6 hPa 0,0 l/m 0,8 km/h (0 Bft) O-NO 77 0 min 0,000 mm 0,0 UV-I 0 W/m 9,0 C 9,6 C 3,2 km/h (1 Bft) 99,15 %
26.10.2015 01:40 9,6 C 96 % 1024,6 hPa 0,0 l/m 0,5 km/h (0 Bft) O-NO 78 0 min 0,000 mm 0,0 UV-I 0 W/m 9,0 C 9,6 C 1,6 km/h (1 Bft) 100,00 %
26.10.2015 01:45 9,4 C 96 % 1024,5 hPa 0,0 l/m 0,5 km/h (0 Bft) O-NO 72 0 min 0,000 mm 0,0 UV-I 0 W/m 8,8 C 9,4 C 3,2 km/h (1 Bft) 100,00 %
26.10.2015 01:50 9,4 C 97 % 1024,4 hPa 0,0 l/m 0,3 km/h (0 Bft) O-NO 65 0 min 0,000 mm 0,0 UV-I 0 W/m 8,9 C 9,4 C 1,6 km/h (1 Bft) 98,17 %
26.10.2015 01:55 9,5 C 97 % 1024,4 hPa 0,0 l/m 0,5 km/h (0 Bft) O-NO 65 0 min 0,000 mm 0,0 UV-I 0 W/m 9,0 C 9,5 C 1,6 km/h (1 Bft) 100,00 %
26.10.2015 02:00 9,5 C 97 % 1024,4 hPa 0,0 l/m 0,7 km/h (0 Bft) O-NO 78 0 min 0,000 mm 0,0 UV-I 0 W/m 9,0 C 9,5 C 3,2 km/h (1 Bft) 99,17 %
26.10.2015 02:05 9,5 C 96 % 1024,4 hPa 0,0 l/m 1,2 km/h (1 Bft) N 10 0 min 0,000 mm 0,0 UV-I 0 W/m 8,9 C 9,5 C 3,2 km/h (1 Bft) 100,00 %
26.10.2015 02:10 9,5 C 96 % 1024,4 hPa 0,0 l/m 0,7 km/h (0 Bft) NO 48 0 min 0,000 mm 0,0 UV-I 0 W/m 8,9 C 9,5 C 3,2 km/h (1 Bft) 100,00 %
26.10.2015 02:15 9,5 C 97 % 1024,3 hPa 0,0 l/m 1,6 km/h (1 Bft) N-NO 24 0 min 0,000 mm 0,0 UV-I 0 W/m 9,0 C 9,5 C 4,8 km/h (1 Bft) 98,17 %
26.10.2015 02:20 9,4 C 97 % 1024,3 hPa 0,0 l/m 2,0 km/h (1 Bft) N-NO 16 0 min 0,000 mm 0,0 UV-I 0 W/m 8,9 C 9,4 C 3,2 km/h (1 Bft) 98,40 %
26.10.2015 02:25 9,4 C 97 % 1024,3 hPa 0,0 l/m 0,4 km/h (0 Bft) O-NO 60 0 min 0,000 mm 0,0 UV-I 0 W/m 8,9 C 9,4 C 3,2 km/h (1 Bft) 99,15 %
26.10.2015 02:30 9,4 C 97 % 1024,2 hPa 0,0 l/m 0,2 km/h (0 Bft) O-NO 59 0 min 0,000 mm 0,0 UV-I 0 W/m 8,9 C 9,4 C 1,6 km/h (1 Bft) 99,15 %
26.10.2015 02:35 9,3 C 97 % 1024,1 hPa 0,0 l/m 1,5 km/h (1 Bft) O-SO 104 0 min 0,000 mm 0,0 UV-I 0 W/m 8,8 C 9,3 C 6,4 km/h (2 Bft) 100,00 %
26.10.2015 02:40 9,4 C 97 % 1024,1 hPa 0,0 l/m 3,7 km/h (1 Bft) O 85 0 min 0,000 mm 0,0 UV-I 0 W/m 8,9 C 9,4 C 8,0 km/h (2 Bft) 100,00 %
26.10.2015 02:45 9,5 C 97 % 1024,0 hPa 0,0 l/m 4,5 km/h (1 Bft) O 85 0 min 0,000 mm 0,0 UV-I 0 W/m 9,0 C 9,5 C 6,4 km/h (2 Bft) 98,31 %
26.10.2015 02:50 9,4 C 97 % 1023,9 hPa 0,0 l/m 2,0 km/h (1 Bft) O-NO 75 0 min 0,000 mm 0,0 UV-I 0 W/m 8,9 C 9,4 C 4,8 km/h (1 Bft) 100,00 %
26.10.2015 02:55 9,4 C 97 % 1023,9 hPa 0,0 l/m 1,8 km/h (1 Bft) O 88 0 min 0,000 mm 0,0 UV-I 0 W/m 8,9 C 9,4 C 4,8 km/h (1 Bft) 98,29 %
26.10.2015 03:00 9,4 C 97 % 1023,8 hPa 0,0 l/m 2,3 km/h (1 Bft) NO 51 0 min 0,000 mm 0,0 UV-I 0 W/m 8,9 C 9,4 C 4,8 km/h (1 Bft) 99,15 %
26.10.2015 03:05 9,4 C 97 % 1023,7 hPa 0,0 l/m 3,1 km/h (1 Bft) O-NO 78 0 min 0,000 mm 0,0 UV-I 0 W/m 8,9 C 9,4 C 4,8 km/h (1 Bft) 97,44 %
26.10.2015 03:10 9,4 C 97 % 1023,7 hPa 0,0 l/m 2,7 km/h (1 Bft) O 84 0 min 0,000 mm 0,0 UV-I 0 W/m 8,9 C 9,4 C 4,8 km/h (1 Bft) 99,17 %
26.10.2015 03:15 9,4 C 97 % 1023,6 hPa 0,0 l/m 1,6 km/h (1 Bft) O 88 0 min 0,000 mm 0,0 UV-I 0 W/m 8,9 C 9,4 C 4,8 km/h (1 Bft) 99,15 %
26.10.2015 03:20 9,3 C 97 % 1023,6 hPa 0,0 l/m 0,8 km/h (0 Bft) NO 45 0 min 0,000 mm 0,0 UV-I 0 W/m 8,8 C 9,3 C 3,2 km/h (1 Bft) 98,29 %
26.10.2015 03:25 9,3 C 97 % 1023,6 hPa 0,0 l/m 1,4 km/h (1 Bft) O 99 0 min 0,000 mm 0,0 UV-I 0 W/m 8,8 C 9,3 C 3,2 km/h (1 Bft) 99,15 %
26.10.2015 03:30 9,3 C 97 % 1023,6 hPa 0,0 l/m 1,1 km/h (1 Bft) O 87 0 min 0,000 mm 0,0 UV-I 0 W/m 8,8 C 9,3 C 3,2 km/h (1 Bft) 99,08 %
26.10.2015 03:35 9,3 C 97 % 1023,6 hPa 0,0 l/m 3,3 km/h (1 Bft) O-SO 104 0 min 0,000 mm 0,0 UV-I 0 W/m 8,8 C 9,3 C 8,0 km/h (2 Bft) 100,00 %
26.10.2015 03:40 9,3 C 97 % 1023,6 hPa 0,0 l/m 4,2 km/h (1 Bft) O 88 0 min 0,000 mm 0,0 UV-I 0 W/m 8,8 C 9,3 C 9,7 km/h (2 Bft) 98,35 %
26.10.2015 03:45 9,4 C 97 % 1023,5 hPa 0,0 l/m 2,6 km/h (1 Bft) O 82 0 min 0,000 mm 0,0 UV-I 0 W/m 8,9 C 9,4 C 6,4 km/h (2 Bft) 100,00 %
26.10.2015 03:50 9,4 C 97 % 1023,4 hPa 0,0 l/m 4,3 km/h (1 Bft) O 80 0 min 0,000 mm 0,0 UV-I 0 W/m 8,9 C 9,4 C 8,0 km/h (2 Bft) 100,00 %
26.10.2015 03:55 9,4 C 97 % 1023,4 hPa 0,0 l/m 5,2 km/h (1 Bft) O 94 0 min 0,000 mm 0,0 UV-I 0 W/m 8,9 C 9,4 C 11,3 km/h (2 Bft) 100,00 %
26.10.2015 04:00 9,4 C 97 % 1023,4 hPa 0,0 l/m 4,6 km/h (1 Bft) O-NO 59 0 min 0,000 mm 0,0 UV-I 0 W/m 8,9 C 9,4 C 11,3 km/h (2 Bft) 100,00 %
26.10.2015 04:05 9,4 C 97 % 1023,4 hPa 0,0 l/m 5,3 km/h (1 Bft) O 81 0 min 0,000 mm 0,0 UV-I 0 W/m 8,9 C 9,4 C 9,7 km/h (2 Bft) 98,04 %
26.10.2015 04:10 9,4 C 97 % 1023,5 hPa 0,0 l/m 4,5 km/h (1 Bft) O-NO 76 0 min 0,000 mm 0,0 UV-I 0 W/m 8,9 C 9,4 C 8,0 km/h (2 Bft) 99,17 %
26.10.2015 04:15 9,5 C 96 % 1023,4 hPa 0,0 l/m 5,1 km/h (1 Bft) O-NO 76 0 min 0,000 mm 0,0 UV-I 0 W/m 8,9 C 9,5 C 8,0 km/h (2 Bft) 100,00 %
26.10.2015 04:20 9,6 C 96 % 1023,3 hPa 0,0 l/m 5,8 km/h (2 Bft) O-NO 65 0 min 0,000 mm 0,0 UV-I 0 W/m 9,0 C 9,6 C 11,3 km/h (2 Bft) 99,06 %
26.10.2015 04:25 9,6 C 96 % 1023,3 hPa 0,0 l/m 6,4 km/h (2 Bft) O-SO 121 0 min 0,000 mm 0,0 UV-I 0 W/m 9,0 C 9,6 C 12,9 km/h (3 Bft) 98,31 %
26.10.2015 04:30 9,6 C 96 % 1023,4 hPa 0,0 l/m 5,9 km/h (2 Bft) N-NO 14 0 min 0,000 mm 0,0 UV-I 0 W/m 9,0 C 9,6 C 12,9 km/h (3 Bft) 99,15 %
26.10.2015 04:35 9,6 C 96 % 1023,3 hPa 0,0 l/m 5,8 km/h (2 Bft) O-NO 63 0 min 0,000 mm 0,0 UV-I 0 W/m 9,0 C 9,6 C 11,3 km/h (2 Bft) 99,17 %
26.10.2015 04:40 9,6 C 96 % 1023,3 hPa 0,0 l/m 6,9 km/h (2 Bft) O 92 0 min 0,000 mm 0,0 UV-I 0 W/m 9,0 C 9,2 C 12,9 km/h (3 Bft) 98,37 %
26.10.2015 04:45 9,6 C 96 % 1023,2 hPa 0,0 l/m 6,1 km/h (2 Bft) O 82 0 min 0,000 mm 0,0 UV-I 0 W/m 9,0 C 9,6 C 11,3 km/h (2 Bft) 98,31 %
26.10.2015 04:50 9,5 C 96 % 1023,1 hPa 0,0 l/m 6,5 km/h (2 Bft) O 93 0 min 0,000 mm 0,0 UV-I 0 W/m 8,9 C 9,5 C 12,9 km/h (3 Bft) 98,11 %
26.10.2015 04:55 9,5 C 95 % 1023,1 hPa 0,0 l/m 6,6 km/h (2 Bft) O 89 0 min 0,000 mm 0,0 UV-I 0 W/m 8,7 C 9,4 C 14,5 km/h (3 Bft) 99,17 %
26.10.2015 05:00 9,5 C 95 % 1023,0 hPa 0,0 l/m 5,9 km/h (2 Bft) O 90 0 min 0,000 mm 0,0 UV-I 0 W/m 8,7 C 9,5 C 14,5 km/h (3 Bft) 99,17 %
26.10.2015 05:05 9,6 C 95 % 1022,9 hPa 0,0 l/m 7,4 km/h (2 Bft) O-NO 76 0 min 0,000 mm 0,0 UV-I 0 W/m 8,8 C 8,9 C 14,5 km/h (3 Bft) 100,00 %
26.10.2015 05:10 9,6 C 95 % 1022,9 hPa 0,0 l/m 6,8 km/h (2 Bft) O 87 0 min 0,000 mm 0,0 UV-I 0 W/m 8,8 C 9,3 C 12,9 km/h (3 Bft) 100,00 %
26.10.2015 05:15 9,6 C 94 % 1022,8 hPa 0,0 l/m 6,0 km/h (2 Bft) O-SO 106 0 min 0,000 mm 0,0 UV-I 0 W/m 8,7 C 9,6 C 12,9 km/h (3 Bft) 100,00 %
26.10.2015 05:20 9,6 C 94 % 1022,6 hPa 0,0 l/m 6,0 km/h (2 Bft) O 93 0 min 0,000 mm 0,0 UV-I 0 W/m 8,7 C 9,6 C 16,1 km/h (3 Bft) 100,00 %
26.10.2015 05:25 9,7 C 94 % 1022,6 hPa 0,0 l/m 8,0 km/h (2 Bft) O 86 0 min 0,000 mm 0,0 UV-I 0 W/m 8,8 C 8,5 C 17,7 km/h (3 Bft) 100,00 %
26.10.2015 05:30 9,7 C 94 % 1022,5 hPa 0,0 l/m 6,9 km/h (2 Bft) O-NO 67 0 min 0,000 mm 0,0 UV-I 0 W/m 8,8 C 9,3 C 14,5 km/h (3 Bft) 99,06 %
26.10.2015 05:35 9,7 C 93 % 1022,3 hPa 0,0 l/m 7,8 km/h (2 Bft) S-SO 150 0 min 0,000 mm 0,0 UV-I 0 W/m 8,6 C 8,7 C 16,1 km/h (3 Bft) 99,17 %
26.10.2015 05:40 9,6 C 93 % 1022,2 hPa 0,0 l/m 6,7 km/h (2 Bft) O 83 0 min 0,000 mm 0,0 UV-I 0 W/m 8,5 C 9,4 C 14,5 km/h (3 Bft) 98,31 %
26.10.2015 05:45 9,6 C 93 % 1022,2 hPa 0,0 l/m 9,0 km/h (2 Bft) O 82 0 min 0,000 mm 0,0 UV-I 0 W/m 8,5 C 7,8 C 17,7 km/h (3 Bft) 100,00 %
26.10.2015 05:50 9,6 C 93 % 1022,1 hPa 0,0 l/m 8,3 km/h (2 Bft) O-NO 69 0 min 0,000 mm 0,0 UV-I 0 W/m 8,5 C 8,2 C 16,1 km/h (3 Bft) 100,00 %
26.10.2015 05:55 9,5 C 93 % 1022,0 hPa 0,0 l/m 8,3 km/h (2 Bft) O 81 0 min 0,000 mm 0,0 UV-I 0 W/m 8,4 C 8,1 C 16,1 km/h (3 Bft) 100,00 %
26.10.2015 06:00 9,4 C 94 % 1021,9 hPa 0,0 l/m 8,6 km/h (2 Bft) O-NO 75 0 min 0,000 mm 0,0 UV-I 0 W/m 8,5 C 7,8 C 16,1 km/h (3 Bft) 99,06 %
26.10.2015 06:05 9,3 C 94 % 1021,8 hPa 0,0 l/m 8,6 km/h (2 Bft) O-NO 69 0 min 0,000 mm 0,0 UV-I 0 W/m 8,4 C 7,7 C 12,9 km/h (3 Bft) 100,00 %
26.10.2015 06:10 9,2 C 94 % 1021,7 hPa 0,0 l/m 7,8 km/h (2 Bft) O 88 0 min 0,000 mm 0,0 UV-I 0 W/m 8,3 C 8,2 C 14,5 km/h (3 Bft) 99,15 %
26.10.2015 06:15 9,2 C 94 % 1021,6 hPa 0,0 l/m 8,4 km/h (2 Bft) O 96 0 min 0,000 mm 0,0 UV-I 0 W/m 8,3 C 7,7 C 14,5 km/h (3 Bft) 98,29 %
26.10.2015 06:20 9,1 C 94 % 1021,6 hPa 0,0 l/m 5,8 km/h (2 Bft) O 101 0 min 0,000 mm 0,0 UV-I 0 W/m 8,2 C 9,1 C 12,9 km/h (3 Bft) 100,00 %
26.10.2015 06:25 9,0 C 94 % 1021,6 hPa 0,0 l/m 6,0 km/h (2 Bft) O 84 0 min 0,000 mm 0,0 UV-I 0 W/m 8,1 C 9,0 C 14,5 km/h (3 Bft) 99,15 %
26.10.2015 06:30 8,8 C 95 % 1021,6 hPa 0,0 l/m 3,2 km/h (1 Bft) NO 43 0 min 0,000 mm 0,0 UV-I 0 W/m 8,0 C 8,8 C 9,7 km/h (2 Bft) 100,00 %
26.10.2015 06:35 8,7 C 95 % 1021,7 hPa 0,0 l/m 3,2 km/h (1 Bft) O-NO 69 0 min 0,000 mm 0,0 UV-I 0 W/m 7,9 C 8,7 C 8,0 km/h (2 Bft) 99,15 %
26.10.2015 06:40 8,7 C 95 % 1021,7 hPa 0,0 l/m 2,4 km/h (1 Bft) N-NO 32 0 min 0,000 mm 0,0 UV-I 3 W/m 7,9 C 8,7 C 6,4 km/h (2 Bft) 98,29 %
26.10.2015 06:45 8,7 C 95 % 1021,6 hPa 0,0 l/m 4,0 km/h (1 Bft) O 86 0 min 0,000 mm 0,0 UV-I 6 W/m 7,9 C 8,7 C 12,9 km/h (3 Bft) 100,00 %
26.10.2015 06:50 8,7 C 95 % 1021,7 hPa 0,0 l/m 3,5 km/h (1 Bft) N-NO 22 0 min 0,000 mm 0,0 UV-I 9 W/m 7,9 C 8,7 C 11,3 km/h (2 Bft) 98,35 %
26.10.2015 06:55 8,7 C 95 % 1021,7 hPa 0,0 l/m 4,2 km/h (1 Bft) NO 46 0 min 0,000 mm 0,0 UV-I 13 W/m 7,9 C 8,7 C 8,0 km/h (2 Bft) 97,46 %
26.10.2015 07:00 8,7 C 95 % 1021,8 hPa 0,0 l/m 3,9 km/h (1 Bft) NO 46 0 min 0,000 mm 0,0 UV-I 17 W/m 7,9 C 8,7 C 8,0 km/h (2 Bft) 98,35 %
26.10.2015 07:05 8,7 C 95 % 1021,7 hPa 0,0 l/m 4,0 km/h (1 Bft) O-NO 61 0 min 0,000 mm 0,0 UV-I 22 W/m 7,9 C 8,7 C 12,9 km/h (3 Bft) 99,15 %
26.10.2015 07:10 8,8 C 95 % 1021,7 hPa 0,0 l/m 6,8 km/h (2 Bft) O 92 0 min 0,000 mm 0,0 UV-I 25 W/m 8,0 C 8,5 C 14,5 km/h (3 Bft) 99,15 %
26.10.2015 07:15 8,8 C 94 % 1021,7 hPa 0,0 l/m 6,9 km/h (2 Bft) O-NO 67 0 min 0,000 mm 0,0 UV-I 31 W/m 7,9 C 8,4 C 17,7 km/h (3 Bft) 98,18 %
26.10.2015 07:20 8,9 C 94 % 1021,7 hPa 0,0 l/m 9,1 km/h (2 Bft) O 79 0 min 0,000 mm 0,0 UV-I 40 W/m 8,0 C 6,9 C 17,7 km/h (3 Bft) 99,15 %
26.10.2015 07:25 8,9 C 93 % 1021,5 hPa 0,0 l/m 10,2 km/h (2 Bft) O-NO 61 0 min 0,000 mm 0,0 UV-I 52 W/m 7,8 C 6,3 C 17,7 km/h (3 Bft) 98,31 %
26.10.2015 07:30 8,9 C 93 % 1021,6 hPa 0,0 l/m 11,2 km/h (2 Bft) O 91 0 min 0,000 mm 0,0 UV-I 61 W/m 7,8 C 5,7 C 19,3 km/h (3 Bft) 97,52 %
26.10.2015 07:35 8,9 C 93 % 1021,6 hPa 0,0 l/m 10,2 km/h (2 Bft) NO 52 0 min 0,000 mm 0,0 UV-I 70 W/m 7,8 C 6,3 C 20,9 km/h (4 Bft) 97,44 %
26.10.2015 07:40 9,0 C 92 % 1021,7 hPa 0,0 l/m 9,7 km/h (2 Bft) O 79 0 min 0,000 mm 0,0 UV-I 79 W/m 7,8 C 6,7 C 17,7 km/h (3 Bft) 99,15 %
26.10.2015 07:45 9,0 C 92 % 1021,6 hPa 0,0 l/m 9,2 km/h (2 Bft) O-NO 67 0 min 0,000 mm 0,0 UV-I 82 W/m 7,8 C 7,0 C 16,1 km/h (3 Bft) 100,00 %
26.10.2015 07:50 9,1 C 92 % 1021,7 hPa 0,0 l/m 7,5 km/h (2 Bft) O 82 5 min 0,000 mm 0,0 UV-I 101 W/m 7,9 C 8,3 C 16,1 km/h (3 Bft) 99,15 %
26.10.2015 07:55 9,1 C 92 % 1021,8 hPa 0,0 l/m 3,7 km/h (1 Bft) N-NO 33 5 min 0,000 mm 0,0 UV-I 105 W/m 7,9 C 9,1 C 8,0 km/h (2 Bft) 100,00 %
26.10.2015 08:00 9,1 C 92 % 1021,8 hPa 0,0 l/m 5,3 km/h (1 Bft) NO 35 5 min 0,025 mm 0,0 UV-I 128 W/m 7,9 C 9,1 C 11,3 km/h (2 Bft) 100,00 %
26.10.2015 08:05 9,1 C 92 % 1021,8 hPa 0,0 l/m 3,9 km/h (1 Bft) O-NO 67 5 min 0,000 mm 0,0 UV-I 80 W/m 7,9 C 9,1 C 9,7 km/h (2 Bft) 100,00 %
26.10.2015 08:10 9,1 C 91 % 1021,7 hPa 0,0 l/m 4,9 km/h (1 Bft) O 86 5 min 0,000 mm 0,0 UV-I 122 W/m 7,7 C 9,1 C 16,1 km/h (3 Bft) 100,00 %
26.10.2015 08:15 9,3 C 90 % 1021,7 hPa 0,0 l/m 7,0 km/h (2 Bft) O-NO 66 5 min 0,000 mm 0,0 UV-I 160 W/m 7,7 C 8,9 C 16,1 km/h (3 Bft) 99,17 %
26.10.2015 08:20 9,4 C 90 % 1021,6 hPa 0,0 l/m 6,8 km/h (2 Bft) O-NO 72 5 min 0,000 mm 0,0 UV-I 177 W/m 7,8 C 9,1 C 19,3 km/h (3 Bft) 100,00 %
26.10.2015 08:25 9,6 C 90 % 1021,7 hPa 0,0 l/m 9,8 km/h (2 Bft) O 90 5 min 0,000 mm 0,0 UV-I 194 W/m 8,0 C 7,3 C 19,3 km/h (3 Bft) 100,00 %
26.10.2015 08:30 9,7 C 89 % 1021,8 hPa 0,0 l/m 6,7 km/h (2 Bft) O 82 5 min 0,000 mm 0,0 UV-I 191 W/m 8,0 C 9,5 C 14,5 km/h (3 Bft) 96,67 %
26.10.2015 08:35 9,8 C 89 % 1021,7 hPa 0,0 l/m 7,4 km/h (2 Bft) O-NO 65 5 min 0,000 mm 0,2 UV-I 193 W/m 8,1 C 9,1 C 19,3 km/h (3 Bft) 99,08 %
26.10.2015 08:40 9,8 C 89 % 1021,7 hPa 0,0 l/m 9,4 km/h (2 Bft) O 101 5 min 0,000 mm 0,5 UV-I 209 W/m 8,1 C 7,7 C 20,9 km/h (4 Bft) 100,00 %
26.10.2015 08:45 9,9 C 88 % 1021,7 hPa 0,0 l/m 10,4 km/h (2 Bft) O-SO 115 5 min 0,000 mm 0,5 UV-I 217 W/m 8,0 C 7,3 C 20,9 km/h (4 Bft) 99,19 %
26.10.2015 08:50 10,0 C 87 % 1021,7 hPa 0,0 l/m 12,1 km/h (2 Bft) O 88 5 min 0,000 mm 0,6 UV-I 235 W/m 7,9 C 6,5 C 19,3 km/h (3 Bft) 99,17 %
26.10.2015 08:55 10,1 C 87 % 1021,7 hPa 0,0 l/m 8,9 km/h (2 Bft) O 83 5 min 0,000 mm 0,6 UV-I 235 W/m 8,0 C 8,4 C 17,7 km/h (3 Bft) 96,23 %
26.10.2015 09:00 10,2 C 87 % 1021,6 hPa 0,0 l/m 12,3 km/h (3 Bft) O-NO 71 5 min 0,102 mm 0,6 UV-I 222 W/m 8,1 C 6,6 C 24,1 km/h (4 Bft) 98,29 %
26.10.2015 09:05 10,2 C 86 % 1021,5 hPa 0,0 l/m 12,8 km/h (3 Bft) O-NO 75 5 min 0,000 mm 0,7 UV-I 245 W/m 8,0 C 6,4 C 25,7 km/h (4 Bft) 97,52 %
26.10.2015 09:10 10,2 C 87 % 1021,5 hPa 0,0 l/m 11,2 km/h (2 Bft) O 88 5 min 0,000 mm 0,7 UV-I 209 W/m 8,1 C 7,2 C 19,3 km/h (3 Bft) 99,15 %
26.10.2015 09:15 10,3 C 86 % 1021,5 hPa 0,0 l/m 13,0 km/h (3 Bft) O 97 5 min 0,000 mm 0,7 UV-I 237 W/m 8,1 C 6,4 C 20,9 km/h (4 Bft) 99,13 %
26.10.2015 09:20 10,4 C 87 % 1021,4 hPa 0,0 l/m 12,1 km/h (2 Bft) O-NO 66 5 min 0,000 mm 0,8 UV-I 258 W/m 8,3 C 6,9 C 22,5 km/h (4 Bft) 100,00 %
26.10.2015 09:25 10,5 C 85 % 1021,5 hPa 0,0 l/m 15,0 km/h (3 Bft) O 93 5 min 0,000 mm 0,8 UV-I 263 W/m 8,1 C 5,7 C 27,4 km/h (4 Bft) 98,29 %
26.10.2015 09:30 10,6 C 85 % 1021,4 hPa 0,0 l/m 10,9 km/h (2 Bft) NO 42 5 min 0,000 mm 0,9 UV-I 268 W/m 8,2 C 7,8 C 19,3 km/h (3 Bft) 99,15 %
26.10.2015 09:35 10,8 C 85 % 1021,5 hPa 0,0 l/m 13,1 km/h (3 Bft) O 87 5 min 0,000 mm 0,9 UV-I 287 W/m 8,4 C 6,9 C 22,5 km/h (4 Bft) 100,00 %
26.10.2015 09:40 10,9 C 86 % 1021,4 hPa 0,0 l/m 9,8 km/h (2 Bft) O-NO 71 5 min 0,000 mm 1,0 UV-I 311 W/m 8,7 C 8,7 C 19,3 km/h (3 Bft) 99,10 %
26.10.2015 09:45 11,2 C 84 % 1021,5 hPa 0,0 l/m 8,5 km/h (2 Bft) NO 48 5 min 0,000 mm 1,0 UV-I 334 W/m 8,6 C 9,8 C 17,7 km/h (3 Bft) 100,00 %
26.10.2015 09:50 11,3 C 83 % 1021,4 hPa 0,0 l/m 10,5 km/h (2 Bft) NO 53 5 min 0,000 mm 1,1 UV-I 306 W/m 8,5 C 8,8 C 17,7 km/h (3 Bft) 97,56 %
26.10.2015 09:55 11,4 C 82 % 1021,4 hPa 0,0 l/m 10,7 km/h (2 Bft) O-NO 68 5 min 0,000 mm 1,1 UV-I 356 W/m 8,4 C 8,8 C 19,3 km/h (3 Bft) 100,00 %
26.10.2015 10:00 11,6 C 82 % 1021,3 hPa 0,0 l/m 13,3 km/h (3 Bft) O 93 5 min 0,152 mm 1,2 UV-I 378 W/m 8,6 C 7,8 C 22,5 km/h (4 Bft) 100,00 %
26.10.2015 10:05 11,7 C 82 % 1021,3 hPa 0,0 l/m 11,7 km/h (2 Bft) O 88 5 min 0,000 mm 1,2 UV-I 380 W/m 8,7 C 8,6 C 20,9 km/h (4 Bft) 100,00 %
26.10.2015 10:10 11,8 C 81 % 1021,1 hPa 0,0 l/m 17,0 km/h (3 Bft) O 88 5 min 0,000 mm 1,3 UV-I 395 W/m 8,6 C 6,6 C 24,1 km/h (4 Bft) 99,15 %
26.10.2015 10:15 11,9 C 82 % 1021,1 hPa 0,0 l/m 14,8 km/h (3 Bft) O 89 5 min 0,000 mm 1,3 UV-I 412 W/m 8,9 C 7,5 C 22,5 km/h (4 Bft) 100,00 %
26.10.2015 10:20 11,9 C 81 % 1021,0 hPa 0,0 l/m 17,3 km/h (3 Bft) O 96 5 min 0,000 mm 1,4 UV-I 434 W/m 8,7 C 6,6 C 27,4 km/h (4 Bft) 100,00 %
26.10.2015 10:30 12,3 C 80 % 1021,0 hPa 0,0 l/m 14,9 km/h (3 Bft) O 95 10 min 0,000 mm 1,5 UV-I 435 W/m 8,9 C 8,0 C 25,7 km/h (4 Bft) 99,68 %
26.10.2015 10:35 12,4 C 80 % 1021,0 hPa 0,0 l/m 13,7 km/h (3 Bft) O 101 5 min 0,000 mm 1,5 UV-I 432 W/m 9,0 C 8,6 C 29,0 km/h (5 Bft) 100,00 %
26.10.2015 10:40 12,6 C 79 % 1020,9 hPa 0,0 l/m 16,4 km/h (3 Bft) O 90 5 min 0,000 mm 1,5 UV-I 428 W/m 9,1 C 7,8 C 25,7 km/h (4 Bft) 99,11 %
26.10.2015 10:45 12,6 C 79 % 1020,9 hPa 0,0 l/m 17,0 km/h (3 Bft) NO 40 5 min 0,000 mm 1,6 UV-I 447 W/m 9,1 C 7,6 C 24,1 km/h (4 Bft) 99,13 %
26.10.2015 10:50 12,7 C 78 % 1020,9 hPa 0,0 l/m 17,3 km/h (3 Bft) O 81 5 min 0,000 mm 1,6 UV-I 443 W/m 9,0 C 7,6 C 27,4 km/h (4 Bft) 100,00 %
26.10.2015 10:55 12,7 C 78 % 1020,9 hPa 0,0 l/m 16,6 km/h (3 Bft) O 100 5 min 0,000 mm 1,6 UV-I 456 W/m 9,0 C 7,8 C 29,0 km/h (5 Bft) 100,00 %
26.10.2015 11:00 12,8 C 78 % 1020,9 hPa 0,0 l/m 14,5 km/h (3 Bft) O-NO 76 5 min 0,254 mm 1,7 UV-I 463 W/m 9,1 C 8,7 C 27,4 km/h (4 Bft) 99,12 %
26.10.2015 11:05 13,0 C 79 % 1020,8 hPa 0,0 l/m 14,6 km/h (3 Bft) O-NO 68 5 min 0,000 mm 1,7 UV-I 469 W/m 9,4 C 8,9 C 22,5 km/h (4 Bft) 97,64 %
26.10.2015 11:10 13,1 C 77 % 1020,7 hPa 0,0 l/m 13,4 km/h (3 Bft) O 80 5 min 0,000 mm 1,7 UV-I 470 W/m 9,2 C 9,5 C 24,1 km/h (4 Bft) 100,00 %
26.10.2015 11:15 13,1 C 76 % 1020,7 hPa 0,0 l/m 14,7 km/h (3 Bft) O 101 5 min 0,000 mm 1,7 UV-I 471 W/m 9,0 C 9,0 C 27,4 km/h (4 Bft) 98,37 %
26.10.2015 11:20 12,9 C 77 % 1020,8 hPa 0,0 l/m 14,3 km/h (3 Bft) O 84 5 min 0,000 mm 1,7 UV-I 471 W/m 9,0 C 8,9 C 24,1 km/h (4 Bft) 100,00 %
26.10.2015 11:25 13,1 C 77 % 1020,8 hPa 0,0 l/m 12,8 km/h (3 Bft) O 91 5 min 0,000 mm 1,8 UV-I 480 W/m 9,2 C 9,7 C 22,5 km/h (4 Bft) 100,00 %
26.10.2015 11:35 13,1 C 75 % 1020,7 hPa 0,0 l/m 13,8 km/h (3 Bft) O 96 10 min 0,000 mm 1,8 UV-I 484 W/m 8,8 C 9,3 C 17,7 km/h (3 Bft) 99,23 %
26.10.2015 11:40 13,2 C 75 % 1020,7 hPa 0,0 l/m 13,3 km/h (3 Bft) O-SO 117 5 min 0,000 mm 1,8 UV-I 478 W/m 8,9 C 9,7 C 25,7 km/h (4 Bft) 100,00 %
26.10.2015 11:45 13,2 C 76 % 1020,7 hPa 0,0 l/m 15,3 km/h (3 Bft) O 94 5 min 0,000 mm 1,7 UV-I 450 W/m 9,1 C 8,9 C 24,1 km/h (4 Bft) 100,00 %
26.10.2015 11:50 13,2 C 76 % 1020,5 hPa 0,0 l/m 13,1 km/h (3 Bft) NO 51 5 min 0,000 mm 1,8 UV-I 460 W/m 9,1 C 9,7 C 25,7 km/h (4 Bft) 99,13 %
26.10.2015 11:55 13,3 C 75 % 1020,4 hPa 0,0 l/m 17,7 km/h (3 Bft) O 81 5 min 0,000 mm 1,8 UV-I 464 W/m 9,0 C 8,2 C 27,4 km/h (4 Bft) 99,21 %
26.10.2015 12:00 13,3 C 75 % 1020,4 hPa 0,0 l/m 14,5 km/h (3 Bft) NO 40 5 min 0,280 mm 1,7 UV-I 449 W/m 9,0 C 9,3 C 27,4 km/h (4 Bft) 100,00 %
26.10.2015 12:05 13,3 C 74 % 1020,3 hPa 0,0 l/m 18,6 km/h (3 Bft) O-NO 78 5 min 0,000 mm 1,8 UV-I 447 W/m 8,8 C 8,0 C 29,0 km/h (5 Bft) 99,19 %
26.10.2015 12:10 13,4 C 74 % 1020,2 hPa 0,0 l/m 18,5 km/h (3 Bft) O 99 5 min 0,000 mm 1,7 UV-I 473 W/m 8,9 C 8,1 C 27,4 km/h (4 Bft) 100,00 %
26.10.2015 12:15 13,5 C 76 % 1020,2 hPa 0,0 l/m 17,3 km/h (3 Bft) O 81 5 min 0,000 mm 1,7 UV-I 446 W/m 9,4 C 8,6 C 27,4 km/h (4 Bft) 99,19 %
26.10.2015 12:20 13,6 C 74 % 1020,2 hPa 0,0 l/m 15,5 km/h (3 Bft) O 83 5 min 0,000 mm 1,7 UV-I 441 W/m 9,1 C 9,3 C 24,1 km/h (4 Bft) 100,00 %
26.10.2015 12:25 13,6 C 73 % 1020,2 hPa 0,0 l/m 16,5 km/h (3 Bft) O-NO 67 5 min 0,000 mm 1,7 UV-I 472 W/m 8,9 C 9,0 C 25,7 km/h (4 Bft) 98,17 %
26.10.2015 12:30 13,8 C 73 % 1020,1 hPa 0,0 l/m 12,0 km/h (2 Bft) O 94 5 min 0,000 mm 1,7 UV-I 476 W/m 9,0 C 10,9 C 22,5 km/h (4 Bft) 100,00 %
26.10.2015 12:35 13,7 C 74 % 1020,2 hPa 0,0 l/m 13,7 km/h (3 Bft) O-NO 58 5 min 0,000 mm 1,7 UV-I 464 W/m 9,2 C 10,1 C 24,1 km/h (4 Bft) 100,00 %
26.10.2015 12:40 13,7 C 73 % 1020,1 hPa 0,0 l/m 13,1 km/h (3 Bft) O-SO 103 5 min 0,000 mm 1,7 UV-I 459 W/m 8,9 C 10,3 C 22,5 km/h (4 Bft) 100,00 %
26.10.2015 12:45 13,8 C 73 % 1020,0 hPa 0,0 l/m 13,6 km/h (3 Bft) O-SO 112 5 min 0,000 mm 1,7 UV-I 462 W/m 9,0 C 10,2 C 25,7 km/h (4 Bft) 100,00 %
26.10.2015 12:50 13,8 C 74 % 1020,0 hPa 0,0 l/m 11,3 km/h (2 Bft) O-NO 59 5 min 0,000 mm 1,6 UV-I 458 W/m 9,2 C 11,2 C 22,5 km/h (4 Bft) 99,15 %
26.10.2015 12:55 13,9 C 73 % 1019,9 hPa 0,0 l/m 12,6 km/h (3 Bft) O 96 5 min 0,000 mm 1,6 UV-I 453 W/m 9,1 C 10,8 C 20,9 km/h (4 Bft) 98,35 %
26.10.2015 13:00 13,8 C 73 % 1019,9 hPa 0,0 l/m 14,3 km/h (3 Bft) O-NO 60 5 min 0,000 mm 1,6 UV-I 446 W/m 9,0 C 10,0 C 22,5 km/h (4 Bft) 98,17 %
26.10.2015 13:05 13,8 C 75 % 1019,8 hPa 0,0 l/m 12,9 km/h (3 Bft) NO 39 5 min 0,279 mm 1,5 UV-I 443 W/m 9,4 C 10,5 C 22,5 km/h (4 Bft) 100,00 %
26.10.2015 13:10 13,9 C 74 % 1019,8 hPa 0,0 l/m 14,2 km/h (3 Bft) O 86 5 min 0,000 mm 1,5 UV-I 436 W/m 9,3 C 10,1 C 22,5 km/h (4 Bft) 99,13 %
26.10.2015 13:15 13,9 C 74 % 1019,7 hPa 0,0 l/m 13,6 km/h (3 Bft) O-NO 71 5 min 0,000 mm 1,4 UV-I 430 W/m 9,3 C 10,4 C 25,7 km/h (4 Bft) 99,11 %
26.10.2015 13:20 13,9 C 73 % 1019,7 hPa 0,0 l/m 15,7 km/h (3 Bft) O-NO 67 5 min 0,000 mm 1,4 UV-I 424 W/m 9,1 C 9,6 C 29,0 km/h (5 Bft) 98,29 %
26.10.2015 13:25 13,9 C 74 % 1019,7 hPa 0,0 l/m 16,4 km/h (3 Bft) O-SO 111 5 min 0,000 mm 1,4 UV-I 421 W/m 9,3 C 9,4 C 27,4 km/h (4 Bft) 99,21 %
26.10.2015 13:30 13,9 C 71 % 1019,7 hPa 0,0 l/m 17,3 km/h (3 Bft) O-NO 65 5 min 0,000 mm 1,3 UV-I 413 W/m 8,7 C 9,1 C 29,0 km/h (5 Bft) 99,15 %
26.10.2015 13:35 13,9 C 73 % 1019,6 hPa 0,0 l/m 12,4 km/h (3 Bft) O-NO 76 5 min 0,000 mm 1,3 UV-I 408 W/m 9,1 C 10,8 C 19,3 km/h (3 Bft) 100,00 %
26.10.2015 13:40 13,9 C 73 % 1019,5 hPa 0,0 l/m 12,9 km/h (3 Bft) O 90 5 min 0,000 mm 1,3 UV-I 401 W/m 9,1 C 10,6 C 27,4 km/h (4 Bft) 99,13 %
26.10.2015 13:45 13,9 C 73 % 1019,4 hPa 0,0 l/m 15,7 km/h (3 Bft) O 94 5 min 0,000 mm 1,2 UV-I 395 W/m 9,1 C 9,6 C 25,7 km/h (4 Bft) 99,12 %
26.10.2015 13:50 13,9 C 72 % 1019,4 hPa 0,0 l/m 14,2 km/h (3 Bft) NO 35 5 min 0,000 mm 1,2 UV-I 388 W/m 8,9 C 10,1 C 25,7 km/h (4 Bft) 99,19 %
26.10.2015 13:55 13,9 C 74 % 1019,4 hPa 0,0 l/m 13,8 km/h (3 Bft) O-SO 108 5 min 0,000 mm 1,1 UV-I 383 W/m 9,3 C 10,3 C 27,4 km/h (4 Bft) 99,15 %
26.10.2015 14:00 14,0 C 74 % 1019,4 hPa 0,0 l/m 13,1 km/h (3 Bft) NO 53 5 min 0,254 mm 1,1 UV-I 377 W/m 9,4 C 10,7 C 20,9 km/h (4 Bft) 99,15 %
26.10.2015 14:05 13,9 C 74 % 1019,4 hPa 0,0 l/m 13,9 km/h (3 Bft) O-SO 110 5 min 0,000 mm 1,0 UV-I 362 W/m 9,3 C 10,3 C 24,1 km/h (4 Bft) 100,00 %
26.10.2015 14:10 13,9 C 75 % 1019,5 hPa 0,0 l/m 14,6 km/h (3 Bft) O 86 5 min 0,000 mm 1,0 UV-I 347 W/m 9,5 C 10,0 C 24,1 km/h (4 Bft) 98,29 %
26.10.2015 14:15 13,9 C 75 % 1019,4 hPa 0,0 l/m 12,0 km/h (2 Bft) O-SO 106 5 min 0,000 mm 0,9 UV-I 338 W/m 9,5 C 11,0 C 19,3 km/h (3 Bft) 99,15 %
26.10.2015 14:20 13,9 C 74 % 1019,3 hPa 0,0 l/m 14,5 km/h (3 Bft) O-NO 73 5 min 0,000 mm 0,9 UV-I 335 W/m 9,3 C 10,0 C 25,7 km/h (4 Bft) 99,08 %
26.10.2015 14:25 13,9 C 75 % 1019,3 hPa 0,0 l/m 9,0 km/h (2 Bft) O 93 5 min 0,000 mm 0,8 UV-I 327 W/m 9,5 C 12,4 C 19,3 km/h (3 Bft) 98,33 %
26.10.2015 14:30 13,9 C 74 % 1019,4 hPa 0,0 l/m 12,2 km/h (2 Bft) O 82 5 min 0,000 mm 0,8 UV-I 318 W/m 9,3 C 10,9 C 20,9 km/h (4 Bft) 99,15 %
26.10.2015 14:35 13,8 C 74 % 1019,3 hPa 0,0 l/m 14,5 km/h (3 Bft) O 98 5 min 0,000 mm 0,7 UV-I 310 W/m 9,2 C 9,9 C 22,5 km/h (4 Bft) 100,00 %
26.10.2015 14:40 13,8 C 75 % 1019,3 hPa 0,0 l/m 13,4 km/h (3 Bft) O-SO 117 5 min 0,000 mm 0,7 UV-I 304 W/m 9,4 C 10,3 C 24,1 km/h (4 Bft) 100,00 %
26.10.2015 14:45 13,8 C 76 % 1019,2 hPa 0,0 l/m 13,3 km/h (3 Bft) O 84 5 min 0,000 mm 0,6 UV-I 295 W/m 9,6 C 10,4 C 27,4 km/h (4 Bft) 100,00 %
26.10.2015 14:50 13,8 C 75 % 1019,2 hPa 0,0 l/m 10,3 km/h (2 Bft) O 82 5 min 0,000 mm 0,6 UV-I 285 W/m 9,4 C 11,6 C 17,7 km/h (3 Bft) 97,50 %
26.10.2015 14:55 13,8 C 75 % 1019,2 hPa 0,0 l/m 13,1 km/h (3 Bft) O-NO 59 5 min 0,000 mm 0,6 UV-I 259 W/m 9,4 C 10,4 C 24,1 km/h (4 Bft) 100,00 %
26.10.2015 15:00 13,8 C 75 % 1019,2 hPa 0,0 l/m 13,0 km/h (3 Bft) O-SO 111 5 min 0,203 mm 0,5 UV-I 248 W/m 9,4 C 10,5 C 20,9 km/h (4 Bft) 100,00 %
26.10.2015 15:05 13,7 C 75 % 1019,1 hPa 0,0 l/m 13,8 km/h (3 Bft) O-NO 59 5 min 0,000 mm 0,5 UV-I 232 W/m 9,3 C 10,1 C 24,1 km/h (4 Bft) 99,10 %
26.10.2015 15:10 13,7 C 74 % 1019,1 hPa 0,0 l/m 12,8 km/h (3 Bft) O-SO 123 5 min 0,000 mm 0,0 UV-I 223 W/m 9,2 C 10,4 C 24,1 km/h (4 Bft) 99,15 %
26.10.2015 15:15 13,6 C 75 % 1019,1 hPa 0,0 l/m 12,3 km/h (3 Bft) O 94 0 min 0,000 mm 0,0 UV-I 200 W/m 9,3 C 10,5 C 24,1 km/h (4 Bft) 99,17 %
26.10.2015 15:20 13,5 C 75 % 1019,1 hPa 0,0 l/m 13,9 km/h (3 Bft) O-NO 76 0 min 0,000 mm 0,0 UV-I 180 W/m 9,2 C 9,8 C 22,5 km/h (4 Bft) 98,37 %
26.10.2015 15:25 13,4 C 76 % 1019,2 hPa 0,0 l/m 12,5 km/h (3 Bft) O-SO 105 0 min 0,000 mm 0,0 UV-I 173 W/m 9,3 C 10,2 C 24,1 km/h (4 Bft) 98,31 %
26.10.2015 15:30 13,4 C 76 % 1019,2 hPa 0,0 l/m 12,3 km/h (3 Bft) O 88 0 min 0,000 mm 0,0 UV-I 170 W/m 9,3 C 10,3 C 19,3 km/h (3 Bft) 100,00 %
26.10.2015 15:35 13,4 C 75 % 1019,2 hPa 0,0 l/m 11,3 km/h (2 Bft) O 79 0 min 0,000 mm 0,0 UV-I 160 W/m 9,1 C 10,7 C 22,5 km/h (4 Bft) 99,06 %
26.10.2015 15:40 13,4 C 76 % 1019,2 hPa 0,0 l/m 13,3 km/h (3 Bft) O-SO 113 0 min 0,000 mm 0,0 UV-I 143 W/m 9,3 C 9,9 C 24,1 km/h (4 Bft) 98,35 %
26.10.2015 15:45 13,3 C 76 % 1019,2 hPa 0,0 l/m 12,6 km/h (3 Bft) O 95 0 min 0,000 mm 0,0 UV-I 130 W/m 9,2 C 10,1 C 22,5 km/h (4 Bft) 98,33 %
26.10.2015 15:50 13,3 C 76 % 1019,3 hPa 0,0 l/m 11,9 km/h (2 Bft) O-NO 59 0 min 0,000 mm 0,0 UV-I 119 W/m 9,2 C 10,4 C 25,7 km/h (4 Bft) 99,17 %
26.10.2015 15:55 13,2 C 75 % 1019,3 hPa 0,0 l/m 14,8 km/h (3 Bft) O-SO 123 0 min 0,000 mm 0,0 UV-I 108 W/m 8,9 C 9,1 C 27,4 km/h (4 Bft) 97,44 %
26.10.2015 16:00 13,1 C 76 % 1019,2 hPa 0,0 l/m 14,4 km/h (3 Bft) O-NO 71 0 min 0,127 mm 0,0 UV-I 95 W/m 9,0 C 9,1 C 24,1 km/h (4 Bft) 98,17 %
26.10.2015 16:05 13,0 C 76 % 1019,2 hPa 0,0 l/m 13,2 km/h (3 Bft) NO 47 0 min 0,000 mm 0,0 UV-I 83 W/m 8,9 C 9,5 C 22,5 km/h (4 Bft) 99,15 %
26.10.2015 16:10 12,9 C 77 % 1019,2 hPa 0,0 l/m 10,8 km/h (2 Bft) O-NO 74 0 min 0,000 mm 0,0 UV-I 74 W/m 9,0 C 10,4 C 20,9 km/h (4 Bft) 100,00 %
26.10.2015 16:15 12,8 C 78 % 1019,3 hPa 0,0 l/m 10,2 km/h (2 Bft) O-NO 61 0 min 0,000 mm 0,0 UV-I 64 W/m 9,1 C 10,6 C 19,3 km/h (3 Bft) 98,35 %
26.10.2015 16:20 12,6 C 78 % 1019,2 hPa 0,0 l/m 7,4 km/h (2 Bft) O 82 0 min 0,000 mm 0,0 UV-I 53 W/m 8,9 C 12,0 C 19,3 km/h (3 Bft) 100,00 %
26.10.2015 16:25 12,6 C 78 % 1019,2 hPa 0,0 l/m 11,8 km/h (2 Bft) O 86 0 min 0,000 mm 0,0 UV-I 43 W/m 8,9 C 9,6 C 20,9 km/h (4 Bft) 100,00 %
26.10.2015 16:30 12,4 C 78 % 1019,2 hPa 0,0 l/m 11,5 km/h (2 Bft) O 98 0 min 0,000 mm 0,0 UV-I 35 W/m 8,7 C 9,5 C 24,1 km/h (4 Bft) 99,15 %
26.10.2015 16:35 12,4 C 78 % 1019,2 hPa 0,0 l/m 12,1 km/h (2 Bft) O 94 0 min 0,000 mm 0,0 UV-I 28 W/m 8,7 C 9,2 C 24,1 km/h (4 Bft) 99,15 %
26.10.2015 16:40 12,3 C 78 % 1019,1 hPa 0,0 l/m 13,5 km/h (3 Bft) O 92 0 min 0,000 mm 0,0 UV-I 23 W/m 8,6 C 8,5 C 22,5 km/h (4 Bft) 100,00 %
26.10.2015 16:45 12,2 C 78 % 1019,1 hPa 0,0 l/m 10,7 km/h (2 Bft) O 88 0 min 0,000 mm 0,0 UV-I 18 W/m 8,5 C 9,7 C 22,5 km/h (4 Bft) 98,31 %
26.10.2015 16:50 12,1 C 79 % 1019,2 hPa 0,0 l/m 10,6 km/h (2 Bft) N-NO 18 0 min 0,000 mm 0,0 UV-I 13 W/m 8,6 C 9,6 C 17,7 km/h (3 Bft) 99,17 %
26.10.2015 16:55 11,9 C 79 % 1019,2 hPa 0,0 l/m 11,8 km/h (2 Bft) O-NO 71 0 min 0,000 mm 0,0 UV-I 10 W/m 8,4 C 8,8 C 20,9 km/h (4 Bft) 98,17 %
26.10.2015 17:00 11,9 C 80 % 1019,2 hPa 0,0 l/m 13,3 km/h (3 Bft) O-NO 76 0 min 0,051 mm 0,0 UV-I 7 W/m 8,6 C 8,1 C 20,9 km/h (4 Bft) 100,00 %
26.10.2015 17:05 11,8 C 79 % 1019,2 hPa 0,0 l/m 13,1 km/h (3 Bft) O 91 0 min 0,000 mm 0,0 UV-I 5 W/m 8,3 C 8,1 C 22,5 km/h (4 Bft) 98,29 %
26.10.2015 17:10 11,8 C 79 % 1019,2 hPa 0,0 l/m 13,0 km/h (3 Bft) O 99 0 min 0,000 mm 0,0 UV-I 3 W/m 8,3 C 8,1 C 19,3 km/h (3 Bft) 99,17 %
26.10.2015 17:15 11,7 C 79 % 1019,2 hPa 0,0 l/m 13,7 km/h (3 Bft) O-NO 57 0 min 0,000 mm 0,0 UV-I 0 W/m 8,2 C 7,7 C 22,5 km/h (4 Bft) 99,15 %
26.10.2015 17:20 11,6 C 80 % 1019,2 hPa 0,0 l/m 12,9 km/h (3 Bft) NO 51 0 min 0,000 mm 0,0 UV-I 0 W/m 8,3 C 7,9 C 20,9 km/h (4 Bft) 100,00 %
26.10.2015 17:25 11,4 C 80 % 1019,2 hPa 0,0 l/m 14,1 km/h (3 Bft) O-NO 66 0 min 0,000 mm 0,0 UV-I 0 W/m 8,1 C 7,2 C 24,1 km/h (4 Bft) 99,15 %
26.10.2015 17:30 11,4 C 80 % 1019,3 hPa 0,0 l/m 15,2 km/h (3 Bft) O 90 0 min 0,000 mm 0,0 UV-I 0 W/m 8,1 C 6,8 C 25,7 km/h (4 Bft) 100,00 %
26.10.2015 17:35 11,3 C 80 % 1019,3 hPa 0,0 l/m 14,9 km/h (3 Bft) O-SO 105 0 min 0,000 mm 0,0 UV-I 0 W/m 8,0 C 6,7 C 24,1 km/h (4 Bft) 100,00 %
26.10.2015 17:40 11,3 C 80 % 1019,3 hPa 0,0 l/m 13,5 km/h (3 Bft) O-NO 74 0 min 0,000 mm 0,0 UV-I 0 W/m 8,0 C 7,3 C 20,9 km/h (4 Bft) 99,15 %
26.10.2015 17:45 11,2 C 81 % 1019,3 hPa 0,0 l/m 12,8 km/h (3 Bft) O 92 0 min 0,000 mm 0,0 UV-I 0 W/m 8,1 C 7,5 C 24,1 km/h (4 Bft) 97,44 %
26.10.2015 17:50 11,1 C 81 % 1019,3 hPa 0,0 l/m 13,4 km/h (3 Bft) O 82 0 min 0,000 mm 0,0 UV-I 0 W/m 8,0 C 7,1 C 22,5 km/h (4 Bft) 98,32 %
26.10.2015 17:55 11,0 C 81 % 1019,3 hPa 0,0 l/m 12,2 km/h (2 Bft) O-NO 75 0 min 0,000 mm 0,0 UV-I 0 W/m 7,9 C 7,6 C 20,9 km/h (4 Bft) 98,31 %
26.10.2015 18:00 10,9 C 81 % 1019,4 hPa 0,0 l/m 13,6 km/h (3 Bft) NO 42 0 min 0,026 mm 0,0 UV-I 0 W/m 7,8 C 6,8 C 22,5 km/h (4 Bft) 99,17 %
26.10.2015 18:05 10,9 C 81 % 1019,4 hPa 0,0 l/m 14,8 km/h (3 Bft) O 94 0 min 0,000 mm 0,0 UV-I 0 W/m 7,8 C 6,3 C 24,1 km/h (4 Bft) 100,00 %
26.10.2015 18:10 10,9 C 81 % 1019,4 hPa 0,0 l/m 14,9 km/h (3 Bft) O-NO 72 0 min 0,000 mm 0,0 UV-I 0 W/m 7,8 C 6,3 C 29,0 km/h (5 Bft) 98,31 %
26.10.2015 18:15 10,8 C 82 % 1019,5 hPa 0,0 l/m 12,8 km/h (3 Bft) O 91 0 min 0,000 mm 0,0 UV-I 0 W/m 7,9 C 7,1 C 22,5 km/h (4 Bft) 98,37 %
26.10.2015 18:20 10,7 C 81 % 1019,5 hPa 0,0 l/m 12,9 km/h (3 Bft) O-NO 65 0 min 0,000 mm 0,0 UV-I 0 W/m 7,6 C 6,9 C 20,9 km/h (4 Bft) 98,31 %
26.10.2015 18:25 10,7 C 82 % 1019,5 hPa 0,0 l/m 13,8 km/h (3 Bft) NO 39 0 min 0,000 mm 0,0 UV-I 0 W/m 7,8 C 6,5 C 20,9 km/h (4 Bft) 99,07 %
26.10.2015 18:30 10,6 C 82 % 1019,5 hPa 0,0 l/m 12,2 km/h (2 Bft) O 90 0 min 0,000 mm 0,0 UV-I 0 W/m 7,7 C 7,1 C 19,3 km/h (3 Bft) 99,15 %
26.10.2015 18:35 10,5 C 82 % 1019,5 hPa 0,0 l/m 13,7 km/h (3 Bft) O-NO 78 0 min 0,000 mm 0,0 UV-I 0 W/m 7,6 C 6,3 C 24,1 km/h (4 Bft) 97,46 %
26.10.2015 18:40 10,4 C 82 % 1019,5 hPa 0,0 l/m 12,1 km/h (2 Bft) O-NO 57 0 min 0,000 mm 0,0 UV-I 0 W/m 7,5 C 6,9 C 19,3 km/h (3 Bft) 99,15 %
26.10.2015 18:45 10,4 C 83 % 1019,4 hPa 0,0 l/m 13,2 km/h (3 Bft) O 90 0 min 0,000 mm 0,0 UV-I 0 W/m 7,6 C 6,4 C 22,5 km/h (4 Bft) 99,15 %
26.10.2015 18:50 10,3 C 83 % 1019,4 hPa 0,0 l/m 11,2 km/h (2 Bft) O-NO 76 0 min 0,000 mm 0,0 UV-I 0 W/m 7,5 C 7,3 C 16,1 km/h (3 Bft) 98,33 %
26.10.2015 18:55 10,3 C 83 % 1019,4 hPa 0,0 l/m 11,0 km/h (2 Bft) NO 44 0 min 0,000 mm 0,0 UV-I 0 W/m 7,5 C 7,4 C 17,7 km/h (3 Bft) 99,11 %
26.10.2015 19:00 10,2 C 84 % 1019,5 hPa 0,0 l/m 10,2 km/h (2 Bft) O-NO 75 0 min 0,025 mm 0,0 UV-I 0 W/m 7,6 C 7,7 C 17,7 km/h (3 Bft) 99,15 %
26.10.2015 19:05 10,1 C 84 % 1019,4 hPa 0,0 l/m 9,5 km/h (2 Bft) O-NO 77 0 min 0,000 mm 0,0 UV-I 0 W/m 7,5 C 8,0 C 16,1 km/h (3 Bft) 100,00 %
26.10.2015 19:10 10,0 C 84 % 1019,4 hPa 0,0 l/m 7,8 km/h (2 Bft) O 94 0 min 0,000 mm 0,0 UV-I 0 W/m 7,4 C 9,0 C 14,5 km/h (3 Bft) 98,31 %
26.10.2015 19:15 9,9 C 85 % 1019,4 hPa 0,0 l/m 8,0 km/h (2 Bft) O 88 0 min 0,000 mm 0,0 UV-I 0 W/m 7,5 C 8,7 C 16,1 km/h (3 Bft) 98,31 %
26.10.2015 19:20 9,8 C 85 % 1019,4 hPa 0,0 l/m 10,6 km/h (2 Bft) O-SO 105 0 min 0,000 mm 0,0 UV-I 0 W/m 7,4 C 7,0 C 17,7 km/h (3 Bft) 98,29 %
26.10.2015 19:25 9,8 C 85 % 1019,3 hPa 0,0 l/m 11,2 km/h (2 Bft) O-NO 78 0 min 0,000 mm 0,0 UV-I 0 W/m 7,4 C 6,7 C 19,3 km/h (3 Bft) 99,15 %
26.10.2015 19:30 9,8 C 85 % 1019,4 hPa 0,0 l/m 10,5 km/h (2 Bft) O 89 0 min 0,000 mm 0,0 UV-I 0 W/m 7,4 C 7,1 C 19,3 km/h (3 Bft) 100,00 %
26.10.2015 19:35 9,8 C 86 % 1019,3 hPa 0,0 l/m 10,8 km/h (2 Bft) O-NO 71 0 min 0,000 mm 0,0 UV-I 0 W/m 7,6 C 6,9 C 19,3 km/h (3 Bft) 98,20 %
26.10.2015 19:40 9,8 C 86 % 1019,3 hPa 0,0 l/m 11,0 km/h (2 Bft) SO 126 0 min 0,000 mm 0,0 UV-I 0 W/m 7,6 C 6,8 C 17,7 km/h (3 Bft) 96,61 %
26.10.2015 19:45 9,7 C 86 % 1019,3 hPa 0,0 l/m 10,2 km/h (2 Bft) O-NO 67 0 min 0,000 mm 0,0 UV-I 0 W/m 7,5 C 7,1 C 20,9 km/h (4 Bft) 98,35 %
26.10.2015 19:50 9,6 C 86 % 1019,3 hPa 0,0 l/m 9,8 km/h (2 Bft) O 80 0 min 0,000 mm 0,0 UV-I 0 W/m 7,4 C 7,3 C 19,3 km/h (3 Bft) 99,07 %
26.10.2015 19:55 9,6 C 87 % 1019,3 hPa 0,0 l/m 9,9 km/h (2 Bft) O 90 0 min 0,000 mm 0,0 UV-I 0 W/m 7,5 C 7,2 C 16,1 km/h (3 Bft) 100,00 %
26.10.2015 20:00 9,5 C 87 % 1019,3 hPa 0,0 l/m 10,1 km/h (2 Bft) O-NO 77 0 min 0,025 mm 0,0 UV-I 0 W/m 7,4 C 7,0 C 16,1 km/h (3 Bft) 99,17 %
26.10.2015 20:05 9,4 C 87 % 1019,3 hPa 0,0 l/m 11,0 km/h (2 Bft) O-NO 72 0 min 0,000 mm 0,0 UV-I 0 W/m 7,3 C 6,4 C 17,7 km/h (3 Bft) 97,46 %
26.10.2015 20:10 9,3 C 88 % 1019,3 hPa 0,0 l/m 9,6 km/h (2 Bft) O 91 0 min 0,000 mm 0,0 UV-I 0 W/m 7,4 C 7,1 C 14,5 km/h (3 Bft) 100,00 %
26.10.2015 20:15 9,2 C 88 % 1019,3 hPa 0,0 l/m 9,9 km/h (2 Bft) O 95 0 min 0,000 mm 0,0 UV-I 0 W/m 7,3 C 6,8 C 16,1 km/h (3 Bft) 99,15 %
26.10.2015 20:20 9,2 C 88 % 1019,2 hPa 0,0 l/m 9,4 km/h (2 Bft) O 91 0 min 0,000 mm 0,0 UV-I 0 W/m 7,3 C 7,1 C 16,1 km/h (3 Bft) 100,00 %
26.10.2015 20:25 9,1 C 89 % 1019,3 hPa 0,0 l/m 9,2 km/h (2 Bft) O-NO 58 0 min 0,000 mm 0,0 UV-I 0 W/m 7,4 C 7,1 C 17,7 km/h (3 Bft) 99,15 %
26.10.2015 20:30 9,1 C 89 % 1019,3 hPa 0,0 l/m 8,2 km/h (2 Bft) O 90 0 min 0,000 mm 0,0 UV-I 0 W/m 7,4 C 7,8 C 14,5 km/h (3 Bft) 100,00 %
26.10.2015 20:35 9,0 C 89 % 1019,3 hPa 0,0 l/m 8,9 km/h (2 Bft) O-NO 59 0 min 0,000 mm 0,0 UV-I 0 W/m 7,3 C 7,2 C 14,5 km/h (3 Bft) 100,00 %
26.10.2015 20:40 8,8 C 90 % 1019,3 hPa 0,0 l/m 7,4 km/h (2 Bft) O 94 0 min 0,000 mm 0,0 UV-I 0 W/m 7,3 C 8,0 C 14,5 km/h (3 Bft) 96,61 %
26.10.2015 20:45 8,8 C 90 % 1019,3 hPa 0,0 l/m 7,5 km/h (2 Bft) O-NO 74 0 min 0,000 mm 0,0 UV-I 0 W/m 7,3 C 8,0 C 16,1 km/h (3 Bft) 98,29 %
26.10.2015 20:50 8,7 C 90 % 1019,2 hPa 0,0 l/m 7,3 km/h (2 Bft) O-NO 70 0 min 0,000 mm 0,0 UV-I 0 W/m 7,2 C 8,0 C 16,1 km/h (3 Bft) 96,61 %
26.10.2015 20:55 8,7 C 90 % 1019,2 hPa 0,0 l/m 4,6 km/h (1 Bft) O 87 0 min 0,000 mm 0,0 UV-I 0 W/m 7,2 C 8,7 C 17,7 km/h (3 Bft) 100,00 %
26.10.2015 21:00 8,4 C 91 % 1019,2 hPa 0,0 l/m 3,1 km/h (1 Bft) O 97 0 min 0,000 mm 0,0 UV-I 0 W/m 7,0 C 8,4 C 8,0 km/h (2 Bft) 99,17 %
26.10.2015 21:05 8,4 C 91 % 1019,2 hPa 0,0 l/m 5,4 km/h (1 Bft) O 88 0 min 0,000 mm 0,0 UV-I 0 W/m 7,0 C 8,4 C 12,9 km/h (3 Bft) 100,00 %
26.10.2015 21:10 8,4 C 91 % 1019,2 hPa 0,0 l/m 4,2 km/h (1 Bft) O-NO 78 0 min 0,000 mm 0,0 UV-I 0 W/m 7,0 C 8,4 C 11,3 km/h (2 Bft) 98,29 %
26.10.2015 21:15 8,4 C 91 % 1019,2 hPa 0,0 l/m 5,2 km/h (1 Bft) O-NO 78 0 min 0,000 mm 0,0 UV-I 0 W/m 7,0 C 8,4 C 11,3 km/h (2 Bft) 100,00 %
26.10.2015 21:20 8,3 C 92 % 1019,2 hPa 0,0 l/m 5,0 km/h (1 Bft) O 79 0 min 0,000 mm 0,0 UV-I 0 W/m 7,1 C 8,3 C 9,7 km/h (2 Bft) 100,00 %
26.10.2015 21:25 8,4 C 92 % 1019,2 hPa 0,0 l/m 5,3 km/h (1 Bft) O 86 0 min 0,000 mm 0,0 UV-I 0 W/m 7,2 C 8,4 C 12,9 km/h (3 Bft) 98,33 %
26.10.2015 21:30 8,4 C 92 % 1019,2 hPa 0,0 l/m 5,1 km/h (1 Bft) O-NO 67 0 min 0,000 mm 0,0 UV-I 0 W/m 7,2 C 8,4 C 11,3 km/h (2 Bft) 98,17 %
26.10.2015 21:35 8,6 C 92 % 1019,2 hPa 0,0 l/m 7,4 km/h (2 Bft) O 86 0 min 0,000 mm 0,0 UV-I 0 W/m 7,4 C 7,8 C 14,5 km/h (3 Bft) 100,00 %
26.10.2015 21:40 8,6 C 92 % 1019,2 hPa 0,0 l/m 6,8 km/h (2 Bft) O 98 0 min 0,000 mm 0,0 UV-I 0 W/m 7,4 C 8,3 C 14,5 km/h (3 Bft) 100,00 %
26.10.2015 21:45 8,7 C 92 % 1019,2 hPa 0,0 l/m 7,4 km/h (2 Bft) O-NO 69 0 min 0,000 mm 0,0 UV-I 0 W/m 7,5 C 7,9 C 14,5 km/h (3 Bft) 99,15 %
26.10.2015 21:50 8,7 C 92 % 1019,2 hPa 0,0 l/m 8,1 km/h (2 Bft) O 81 0 min 0,000 mm 0,0 UV-I 0 W/m 7,5 C 7,4 C 16,1 km/h (3 Bft) 100,00 %
26.10.2015 21:55 8,7 C 92 % 1019,2 hPa 0,0 l/m 7,2 km/h (2 Bft) O 88 0 min 0,000 mm 0,0 UV-I 0 W/m 7,5 C 8,1 C 14,5 km/h (3 Bft) 98,31 %
26.10.2015 22:00 8,8 C 92 % 1019,2 hPa 0,0 l/m 8,0 km/h (2 Bft) O 90 0 min 0,000 mm 0,0 UV-I 0 W/m 7,6 C 7,6 C 16,1 km/h (3 Bft) 100,00 %
26.10.2015 22:05 8,8 C 92 % 1019,2 hPa 0,0 l/m 8,4 km/h (2 Bft) O-SO 106 0 min 0,000 mm 0,0 UV-I 0 W/m 7,6 C 7,3 C 16,1 km/h (3 Bft) 99,57 %
26.10.2015 22:10 8,8 C 92 % 1019,2 hPa 0,0 l/m 7,5 km/h (2 Bft) O 92 0 min 0,000 mm 0,0 UV-I 0 W/m 7,6 C 8,0 C 12,9 km/h (3 Bft) 98,29 %
26.10.2015 22:15 8,8 C 92 % 1019,1 hPa 0,0 l/m 6,9 km/h (2 Bft) O-NO 68 0 min 0,000 mm 0,0 UV-I 0 W/m 7,6 C 8,4 C 12,9 km/h (3 Bft) 100,00 %
26.10.2015 22:20 8,8 C 92 % 1019,1 hPa 0,0 l/m 6,1 km/h (2 Bft) NO 41 0 min 0,000 mm 0,0 UV-I 0 W/m 7,6 C 8,8 C 14,5 km/h (3 Bft) 99,17 %
26.10.2015 22:25 8,9 C 92 % 1019,0 hPa 0,0 l/m 6,5 km/h (2 Bft) O-SO 108 0 min 0,000 mm 0,0 UV-I 0 W/m 7,7 C 8,9 C 12,9 km/h (3 Bft) 100,00 %
26.10.2015 22:30 8,9 C 92 % 1019,1 hPa 0,0 l/m 8,7 km/h (2 Bft) SO 126 0 min 0,000 mm 0,0 UV-I 0 W/m 7,7 C 7,2 C 16,1 km/h (3 Bft) 100,00 %
26.10.2015 22:35 9,0 C 92 % 1019,0 hPa 0,0 l/m 6,6 km/h (2 Bft) NO 35 0 min 0,000 mm 0,0 UV-I 0 W/m 7,8 C 8,9 C 16,1 km/h (3 Bft) 100,00 %
26.10.2015 22:40 9,0 C 92 % 1019,0 hPa 0,0 l/m 8,8 km/h (2 Bft) NO 47 0 min 0,000 mm 0,0 UV-I 0 W/m 7,8 C 7,3 C 17,7 km/h (3 Bft) 100,00 %
26.10.2015 22:45 9,1 C 92 % 1019,0 hPa 0,0 l/m 9,0 km/h (2 Bft) O 101 0 min 0,000 mm 0,0 UV-I 0 W/m 7,9 C 7,2 C 14,5 km/h (3 Bft) 100,00 %
26.10.2015 22:50 9,1 C 92 % 1019,0 hPa 0,0 l/m 7,4 km/h (2 Bft) O 87 0 min 0,000 mm 0,0 UV-I 0 W/m 7,9 C 8,3 C 14,5 km/h (3 Bft) 99,15 %
26.10.2015 22:55 9,2 C 92 % 1018,9 hPa 0,0 l/m 8,7 km/h (2 Bft) O 80 0 min 0,000 mm 0,0 UV-I 0 W/m 8,0 C 7,5 C 14,5 km/h (3 Bft) 98,31 %
26.10.2015 23:00 9,2 C 91 % 1018,9 hPa 0,0 l/m 9,4 km/h (2 Bft) O 94 0 min 0,000 mm 0,0 UV-I 0 W/m 7,8 C 7,1 C 16,1 km/h (3 Bft) 100,00 %
26.10.2015 23:05 9,2 C 91 % 1018,9 hPa 0,0 l/m 7,1 km/h (2 Bft) NO 54 0 min 0,000 mm 0,0 UV-I 0 W/m 7,8 C 8,7 C 17,7 km/h (3 Bft) 99,15 %
26.10.2015 23:10 9,2 C 91 % 1018,9 hPa 0,0 l/m 7,2 km/h (2 Bft) O 81 0 min 0,000 mm 0,0 UV-I 0 W/m 7,8 C 8,6 C 12,9 km/h (3 Bft) 98,31 %
26.10.2015 23:15 9,2 C 91 % 1018,9 hPa 0,0 l/m 6,1 km/h (2 Bft) O-NO 65 0 min 0,000 mm 0,0 UV-I 0 W/m 7,8 C 9,2 C 12,9 km/h (3 Bft) 100,00 %
26.10.2015 23:20 9,3 C 91 % 1018,9 hPa 0,0 l/m 5,6 km/h (1 Bft) O 100 0 min 0,000 mm 0,0 UV-I 0 W/m 7,9 C 9,3 C 11,3 km/h (2 Bft) 98,31 %
26.10.2015 23:25 9,3 C 91 % 1018,8 hPa 0,0 l/m 6,6 km/h (2 Bft) O 88 0 min 0,000 mm 0,0 UV-I 0 W/m 7,9 C 9,2 C 12,9 km/h (3 Bft) 99,06 %
26.10.2015 23:30 9,3 C 91 % 1018,8 hPa 0,0 l/m 5,8 km/h (2 Bft) O 101 0 min 0,000 mm 0,0 UV-I 0 W/m 7,9 C 9,3 C 12,9 km/h (3 Bft) 98,33 %
26.10.2015 23:35 9,3 C 91 % 1018,7 hPa 0,0 l/m 6,2 km/h (2 Bft) O-NO 68 0 min 0,000 mm 0,0 UV-I 0 W/m 7,9 C 9,3 C 19,3 km/h (3 Bft) 100,00 %
26.10.2015 23:40 9,3 C 91 % 1018,9 hPa 0,0 l/m 7,3 km/h (2 Bft) O-NO 61 0 min 0,000 mm 0,0 UV-I 0 W/m 7,9 C 8,6 C 14,5 km/h (3 Bft) 98,31 %
26.10.2015 23:45 9,3 C 92 % 1018,9 hPa 0,0 l/m 5,5 km/h (1 Bft) O 81 0 min 0,000 mm 0,0 UV-I 0 W/m 8,1 C 9,3 C 11,3 km/h (2 Bft) 99,15 %
26.10.2015 23:50 9,3 C 91 % 1018,8 hPa 0,0 l/m 6,5 km/h (2 Bft) O 92 0 min 0,000 mm 0,0 UV-I 0 W/m 7,9 C 9,3 C 12,9 km/h (3 Bft) 100,00 %
26.10.2015 23:55 9,4 C 92 % 1018,9 hPa 0,0 l/m 6,9 km/h (2 Bft) O 84 0 min 0,000 mm 0,0 UV-I 0 W/m 8,2 C 9,0 C 14,5 km/h (3 Bft) 99,15 %
_ Min-Zeit 21:20 13:30 23:35 - 00:00 - - - - - - 21:00 07:30 00:00 00:05
Minimum _ 8,3 C 71 % 1018,7 hPa - 0,1 km/h (0 Bft) - - - - - - 7,0 C 5,7 C 1,6 km/h (1 Bft) 95,69 %
_ Max-Zeit 13:20 01:50 00:00 00:00 12:05 - - 10:30 12:00 11:25 11:35 14:45 14:25 10:35 00:10
Maximum _ 14,0 C 97 % 1025,3 hPa 0,0 l/m 18,6 km/h
O-NO (3 Bft)
- - 10 min 0,280 mm 1,8 UV-I 484 W/m 9,6 C 12,4 C 29,0 km/h
O (5 Bft)
100,00 %
Durchschnitt _ 10,7 C 87 % 1021,0 hPa #0,0 l/m 9,0 km/h (2 Bft) O - #7:25 h #1,803 mm 1,2 UV-I 267 W/m 8,4 C 8,7 C 16,6 km/h (3 Bft) 99,12 %